This is the latest recevied weather packets stored in our database for station/object KB7K. If no packets are shown the sender has not sent any weather packets the latest 10 day(s).
| Time | Temp. | Humidity | Pressure | Rain* | Wind** | Luminosity | Snow |
|---|---|---|---|---|---|---|---|
| 1788605703 | 17.22° C | 34% | 981.2 hPa | 0 mm | - | - | - |
| 1788604702 | 17.22° C | 34% | 981.1 hPa | 0 mm | - | - | - |
| 1788603698 | 17.22° C | 34% | 980.9 hPa | 0 mm | - | - | - |
| 1788602696 | 17.78° C | 34% | 980.9 hPa | 0 mm | - | - | - |
| 1788601692 | 17.78° C | 34% | 980.7 hPa | 0 mm | - | - | - |
| 1788600689 | 18.33° C | 33% | 980.7 hPa | 0 mm | - | - | - |
| 1788599686 | 18.33° C | 33% | 980.5 hPa | 0 mm | - | - | - |
| 1788597679 | 18.89° C | 32% | 980.5 hPa | 0 mm | - | - | - |
| 1788596677 | 18.89° C | 32% | 980.4 hPa | 0 mm | - | - | - |
| 1788593667 | 20° C | 31% | 980.1 hPa | 0 mm | - | - | - |
| 1788591661 | 20.56° C | 30% | 979.7 hPa | 0 mm | - | - | - |
| 1788590659 | 20.56° C | 29% | 979.3 hPa | 0 mm | - | - | - |
| 1788589655 | 20.56° C | 29% | 979.2 hPa | 0 mm | - | - | - |
| 1788588653 | 21.11° C | 28% | 979 hPa | 0 mm | - | - | - |
| 1788586647 | 21.67° C | 28% | 978.8 hPa | 0 mm | - | - | - |
| 1788585642 | 21.67° C | 27% | 978.7 hPa | 0 mm | - | - | - |
| 1788584639 | 21.67° C | 27% | 978.6 hPa | 0 mm | - | - | - |
| 1788583636 | 21.67° C | 26% | 978.6 hPa | 0 mm | - | - | - |
| 1788581630 | 22.78° C | 25% | 978.4 hPa | 0 mm | - | - | - |
| 1788580629 | 23.33° C | 24% | 978.3 hPa | 0 mm | - | - | - |
| 1788578622 | 23.89° C | 23% | 978 hPa | 0 mm | - | - | - |
| 1788575612 | 25° C | 22% | 977.1 hPa | 0 mm | - | - | - |
| 1788574610 | 25° C | 21% | 977.1 hPa | 0 mm | - | - | - |
| 1788571600 | 26.11° C | 20% | 976.9 hPa | 0 mm | - | - | - |
| 1788570598 | 26.67° C | 19% | 976.8 hPa | 0 mm | - | - | - |
* Rain since midnight (hover to see other rain measurements)
** Current wind speed in m/s (hover to see current wind gust speed)